Location: Unspecified
(50.7693°N, 0.0000°E)
Time: 23:00:45
(UTC+00:00)

SR - Pass Details

Date: 28 June 2019
Orbit: 581 x 875 km, 66.7° (Epoch: 15 July)

Event Time Altitude Azimuth Distance (km) Brightness Sun altitude
Rises 11:52:06 0° 313° (NW) 3,049 ? 62.4°
Reaches altitude 10° 11:54:48 10° 298° (WNW) 2,182 ? 62.5°
Maximum altitude 11:58:32 22° 249° (WSW) 1,595 ? 62.5°
Drops below altitude 10° 12:02:30 10° 200° (SSW) 2,319 ? 62.5°
Sets 12:05:28 0° 186° (S) 3,296 ? 62.5°
